Location: Gazon
(48.1318°N, 1.2708°W)
Time: 02:20:28
(UTC+00:00)

CREW DRAGON DEMO-1 DEB - Pass Details

Date: 18 September 2020
Orbit: 361 x 363 km, 51.6° (Epoch: 29 October)

Event Time Altitude Azimuth Distance (km) Brightness Sun altitude
Rises 20:04:12 0° 287° (WNW) 2,198 8.3 -19.1°
Reaches altitude 10° 20:06:17 10° 294° (WNW) 1,352 6.9 -19.5°
Enters shadow 20:09:07 44° 4° (N) 516 3.6 -19.9°
